This demonstration page uses our WeatherBlox Daily Observations layout. Learn more.

Left ArrowRight Arrow

34.16533, -84.80231

Hourly Observations for March 19, 2021

Temp ( °F °C ) Dew Point ( °F °C ) Humidity (%) Winds ( mph kmh ) Pressure ( in mb ) Visibility ( mi km ) Precip ( " mm )
12:53 am 00:53 Cloudy 47 8.3 39 3.9 74 74 Calm 29.91 1013 10 16 0.00 0.00
1:53 am 01:53 Cloudy 46 7.8 40 4.4 79 79 Calm 29.91 1013 10 16 0.00 0.00
2:53 am 02:53 Cloudy 46 7.8 39 3.9 77 77 VRB 3 6 29.92 1013 10 16 0.00 0.00
3:11 am 03:11 Cloudy 46 7.8 39 3.9 77 77 VRB 3 6 29.96 1014 10 16 0.00 0.00
3:29 am 03:29 Cloudy 46 7.8 39 3.9 77 77 Calm 29.97 1015 10 16 0.00 0.00
3:53 am 03:53 Cloudy 46 7.8 39 3.9 77 77 VRB 3 6 29.93 1013 10 16 0.00 0.00
4:53 am 04:53 Cloudy 46 7.8 40 4.4 79 79 Calm 29.92 1013 10 16 0.00 0.00
5:53 am 05:53 Cloudy 47 8.3 40 4.4 77 77 Calm 29.94 1014 10 16 0.00 0.00
6:53 am 06:53 Cloudy 47 8.3 40 4.4 77 77 Calm 29.96 1015 10 16 0.00 0.00
7:39 am 07:39 Cloudy 47 8.3 41 5 80 80 Calm 30.01 1016 10 16 0.00 0.00
7:53 am 07:53 Cloudy 47 8.3 40 4.4 77 77 Calm 29.99 1016 10 16 0.00 0.00
8:46 am 08:46 Cloudy 48 8.9 41 5 77 77 VRB 3 6 30.04 1017 10 16 0.00 0.00
8:53 am 08:53 Cloudy 48 8.9 41 5 77 77 Calm 30.01 1016 10 16 0.00 0.00
9:53 am 09:53 Cloudy 50 10 42 5.6 74 74 VRB 5 7 30.03 1017 10 16 0.00 0.00
10:23 am 10:23 Cloudy 51 10.6 42 5.6 71 71 NNW 6 9 30.07 1018 10 16 0.00 0.00
10:53 am 10:53 Cloudy 51 10.6 41 5 69 69 Calm 30.06 1018 10 16 0.00 0.00
11:53 am 11:53 Cloudy 53 11.7 41 5 64 64 N 8 13 30.07 1018 10 16 0.00 0.00
12:29 pm 12:29 Cloudy 54 12.2 41 5 62 62 N 10 17 30.09 1019 10 16 0.00 0.00
12:39 pm 12:39 Cloudy 54 12.2 42 5.6 64 64 N 10 17 30.10 1019 10 16 0.00 0.00
12:53 pm 12:53 Cloudy 54 12.2 41 5 62 62 VRB 5 7 30.08 1019 10 16 0.00 0.00
1:53 pm 13:53 Cloudy 56 13.3 42 5.6 60 60 N 9 15 30.07 1018 10 16 0.00 0.00
2:53 pm 14:53 Cloudy 56 13.3 43 6.1 62 62 VRB 6 9 30.07 1018 10 16 0.00 0.00
3:53 pm 15:53 Cloudy 59 15 43 6.1 56 56 VRB 5 7 30.07 1018 10 16 0.00 0.00
4:53 pm 16:53 Cloudy 59 15 42 5.6 54 54 N 9 15 30.08 1019 10 16 0.00 0.00
5:53 pm 17:53 Cloudy 58 14.4 43 6.1 58 58 N 9 15 30.09 1019 10 16 0.00 0.00
6:53 pm 18:53 Cloudy 56 13.3 43 6.1 62 62 N 8 13 30.12 1020 10 16 0.00 0.00
7:53 pm 19:53 Cloudy 54 12.2 43 6.1 67 67 N 9 15 30.16 1021 10 16 0.00 0.00
8:53 pm 20:53 Cloudy 53 11.7 43 6.1 69 69 NNW 3 6 30.18 1022 10 16 0.00 0.00
9:25 pm 21:25 Cloudy 53 11.7 43 6.1 69 69 N 6 9 30.21 1023 10 16 0.00 0.00
9:32 pm 21:32 Cloudy 52 11.1 43 6.1 72 72 VRB 5 7 30.23 1024 10 16 0.00 0.00
9:53 pm 21:53 Cloudy 52 11.1 44 6.7 75 75 NNW 3 6 30.21 1023 10 16 0.00 0.00
10:53 pm 22:53 Cloudy 51 10.6 45 7.2 80 80 NNW 3 6 30.22 1024 10 16 0.00 0.00
11:53 pm 23:53 Cloudy 51 10.6 45 7.2 80 80 NNE 6 9 30.25 1024 10 16 0.00 0.00

Powered by AerisWeather